Tracking 35019 objects as of 13-Aug-2026
HD Live streaming from Space Station
objects crossing your sky now

MORDOVIA-IOT


MORDOVIA-IOT is no longer on orbit
MORDOVIA-IOT is classified as:


NORAD ID: 61765
Int'l Code: 2024-199AG
Launch date: November 4, 2024
Source: Commonwealth of Independent States (former USSR) (CIS)
Launch site: VOSTOCHNY COSMODROME (VOSTO)
Decay date: 2026-02-05

Uplink (MHz):
Downlink (MHz): 437.100
Beacon (MHz):
Mode: 1143 AFSK SSTV
Call sign: RS50S
Status: Reentered

Your satellite tracking list
Your tracking list is empty




NASA's NSSDC Master Catalog

Two Line Element Set (TLE):
1 61765U 24199AG  26036.19443600  .16377816  26719-5  36725-3 0  9999
2 61765  97.2739 278.4782 0007770 210.1809 149.9048 16.46150586114513
Source of the keplerian elements: AFSPC